[[{"header":{"parameterUnit":"m.s-1","parameterCategory":1,"la1":30.2991,"la2":30.254,"lo1":-89.0895,"lo2":-89.0444,"dy":0.0017,"dx":0.0017,"nx":28,"ny":28,"refTime":"2024-06-04T21:00:00:Z","depth":0,"parameterNumber":2,"parameterNumberName":"U-component_of_WINDS"},"data":[0,0,0,0,0,0,0,0,0,0,0,0,0,0,0,0,0,0,0,0,0,0,0,0,0,0,0,0,0,0,0,0,0,0,0,0,0,0,0,0,0,0,0,0,0,0,0,0,0,0,0,0,0,0,0,0,0,0,-0.5809,-0.5809,0,-0.5848,-0.5849,-0.5849,-0.5868,-0.5868,-0.5868,-0.5868,-0.5909,-0.591,-0.5911,0,0,0,0,0,0,0,0,0,0,0,0,0,-0.5749,-0.575,-0.5809,-0.5809,-0.581,-0.5848,-0.5849,-0.5849,-0.5868,-0.5868,-0.5868,-0.5868,-0.5908,-0.5909,-0.5911,0,0,0,0,0,0,0,0,0,0,0,0,0,-0.5781,-0.5751,-0.5809,-0.5823,-0.5825,-0.5848,-0.5849,-0.585,-0.5868,-0.5868,-0.5868,-0.5868,-0.5908,-0.5909,-0.5911,-0.5922,0,0,-0.5916,-0.5917,0,0,0,0,0,0,0,0,-0.5779,-0.5783,-0.5821,-0.5822,-0.5824,-0.5853,-0.5843,-0.5874,-0.5868,-0.5852,-0.5868,-0.5868,-0.589,-0.5893,-0.5901,-0.5924,-0.5926,-0.5916,-0.5917,-0.5918,-0.5919,0,0,0,0,0,0,0,-0.5777,-0.5781,-0.5824,-0.5821,-0.5824,-0.5828,-0.5833,-0.5849,-0.5871,-0.5853,-0.5854,-0.5859,-0.5891,-0.5899,-0.5902,-0.5927,-0.5916,-0.5918,-0.5919,-0.5919,-0.5962,-0.5962,0,0,0,0,0,0,-0.5772,-0.5779,-0.5823,-0.5826,-0.5801,-0.5829,-0.5834,-0.5844,-0.5871,-0.5875,-0.5859,-0.586,-0.5896,-0.59,-0.5903,-0.5919,-0.5918,-0.592,-0.5921,-0.5962,-0.5962,-0.5962,0,0,0,0,0,0,-0.5771,-0.5776,-0.5822,-0.5803,-0.5809,-0.5831,-0.5841,-0.5845,-0.5853,-0.5875,-0.5879,-0.5863,-0.5896,-0.5901,-0.5918,-0.5921,-0.592,-0.5922,-0.5962,-0.5962,-0.5962,-0.595,0,0,0,0,0,0,-0.5769,-0.5775,-0.5779,-0.5803,-0.581,-0.5835,-0.5841,-0.5846,-0.5856,-0.5857,-0.588,-0.5884,-0.5897,-0.5915,-0.5919,-0.5923,-0.5923,-0.5962,-0.5962,-0.5962,-0.595,-0.595,-0.5949,0,0,0,0,0,-0.5767,-0.5774,-0.578,-0.5785,-0.5816,-0.5835,-0.5839,-0.5854,-0.5856,-0.586,-0.5875,-0.5883,-0.592,-0.5917,-0.5922,-0.5926,-0.5962,-0.5962,-0.5962,-0.595,-0.595,-0.5949,0,0,0,0,0,0,-0.5751,-0.5777,-0.5784,-0.5799,-0.5815,-0.5838,-0.5844,-0.5853,-0.5868,-0.5869,-0.5886,-0.5891,-0.5907,-0.5918,-0.5914,-0.5939,-0.5941,-0.5943,-0.5931,-0.593,-0.593,-0.5927,-0.5925,0,0,0,0,0,-0.5749,-0.5762,-0.5785,-0.5796,-0.5804,-0.5823,-0.5831,-0.5842,-0.5858,-0.5865,-0.5881,-0.5897,-0.5912,-0.5922,-0.5937,-0.5952,-0.5957,-0.5957,-0.5957,-0.5956,-0.5957,-0.5967,-0.5967,-0.5963,-0.5963,-0.5963,0,0,-0.5745,-0.5761,-0.5769,-0.5793,-0.5806,-0.582,-0.5828,-0.5842,-0.5852,-0.5867,-0.5884,-0.5896,-0.5915,-0.5931,-0.5939,-0.5941,-0.5959,-0.5957,-0.5956,-0.5957,-0.5967,-0.5967,-0.5967,-0.5964,-0.5964,-0.5964,0,0,-0.5745,-0.5759,-0.577,-0.5783,-0.5803,-0.5816,-0.5819,-0.5841,-0.585,-0.5867,-0.5879,-0.5892,-0.5917,-0.5931,-0.5941,-0.5947,-0.5956,-0.5952,-0.5949,-0.5958,-0.5958,-0.5959,-0.5962,-0.5962,-0.5953,-0.5953,-0.5953,0,-0.5738,-0.5759,-0.5775,-0.5788,-0.5799,-0.5813,-0.5825,-0.5837,-0.5861,-0.5868,-0.587,-0.5904,-0.5917,-0.5937,-0.5939,-0.5946,-0.595,-0.5949,-0.5957,-0.5958,-0.5958,-0.5961,-0.5962,-0.5952,-0.5952,-0.5952,-0.5952,0,-0.575,-0.5764,-0.5771,-0.5794,-0.5805,-0.5817,-0.5835,-0.5845,-0.5855,-0.5867,-0.5885,-0.5902,-0.5921,-0.5927,-0.5936,-0.5948,-0.5949,-0.5954,-0.5957,-0.5958,-0.5961,-0.5962,-0.5951,-0.5951,-0.5952,-0.5952,0,0,-0.5741,-0.5773,-0.5775,-0.5786,-0.5809,-0.5821,-0.5834,-0.5853,-0.5861,-0.5878,-0.589,-0.5911,-0.5916,-0.5928,-0.5939,-0.5946,-0.5951,-0.5951,-0.5951,-0.595,-0.5966,-0.5962,-0.5963,-0.5957,-0.5957,-0.5957,-0.5965,0,-0.5745,-0.5769,-0.5784,-0.5802,-0.5816,-0.583,-0.5842,-0.5858,-0.587,-0.5884,-0.5898,-0.5913,-0.5918,-0.5926,-0.5934,-0.5949,-0.5955,-0.5948,-0.5968,-0.5969,-0.5963,-0.5965,-0.5961,-0.5967,-0.5966,-0.5966,-0.5966,0,-0.5752,-0.5768,-0.5788,-0.5811,-0.5817,-0.5827,-0.5846,-0.5859,-0.5878,-0.5886,-0.59,-0.5911,-0.5926,-0.5928,-0.5949,-0.5945,-0.5954,-0.5963,-0.5963,-0.5966,-0.5968,-0.5968,-0.5969,-0.597,-0.5968,-0.5968,-0.5968,0,-0.5744,-0.5771,-0.5786,-0.5795,-0.5822,-0.5829,-0.584,-0.5859,-0.587,-0.5886,-0.5894,-0.5912,-0.5922,-0.5936,-0.5951,-0.5951,-0.5972,-0.5975,-0.5979,-0.5979,-0.5983,-0.5983,-0.5986,-0.5988,-0.5988,-0.5988,-0.5988,0,-0.5747,-0.5759,-0.5783,-0.5793,-0.5807,-0.5824,-0.5837,-0.585,-0.5866,-0.5879,-0.5892,-0.5904,-0.5924,-0.5938,-0.5951,-0.5967,-0.5971,-0.5979,-0.5982,-0.5978,-0.5977,-0.5984,-0.5984,-0.5989,-0.5989,-0.5988,-0.5988,0,-0.574,-0.5757,-0.5775,-0.5799,-0.5805,-0.5814,-0.5835,-0.5845,-0.5858,-0.5874,-0.5879,-0.59,-0.5917,-0.5935,-0.5958,-0.5967,-0.5983,-0.5987,-0.5976,-0.5978,-0.5982,-0.5982,-0.5991,-0.5993,-0.5993,-0.5993,-0.5993,0,-0.5741,-0.575,-0.5776,-0.5785,-0.5796,-0.5811,-0.5822,-0.584,-0.5851,-0.5873,-0.5881,-0.5899,-0.5915,-0.5942,-0.596,-0.5978,-0.5983,-0.5985,-0.5986,-0.5981,-0.5984,-0.5983,-0.5984,-0.5984,-0.5984,-0.5984,-0.5984,0,-0.5741,-0.5749,-0.5764,-0.5783,-0.5796,-0.5811,-0.5827,-0.5834,-0.5855,-0.5867,-0.5885,-0.5897,-0.5921,-0.594,-0.596,-0.5972,-0.5982,-0.5984,-0.5986,-0.5982,-0.5976,-0.5979,-0.5976,-0.5984,-0.5984,-0.5984,-0.5984,-0.5984,-0.5738,-0.5748,-0.5767,-0.5784,-0.5798,-0.5812,-0.5823,-0.5838,-0.5853,-0.5875,-0.5884,-0.5902,-0.5922,-0.595,-0.5962,-0.5977,-0.5979,-0.5982,-0.5983,-0.5984,-0.5983,-0.5973,-0.5981,-0.5981,-0.5981,-0.5981,-0.5981,0,-0.5739,-0.5752,-0.5768,-0.579,-0.5803,-0.5811,-0.5829,-0.584,-0.5856,-0.5873,-0.5889,-0.591,-0.5928,-0.5947,-0.5966,-0.5975,-0.598,-0.5979,-0.5979,-0.5982,-0.5979,-0.5976,-0.5975,-0.5975,-0.5975,-0.5975,-0.5975,-0.5975,-0.5741,-0.5758,-0.5768,-0.5792,-0.5805,-0.5823,-0.5833,-0.5847,-0.5861,-0.5884,-0.5899,-0.5911,-0.5929,-0.595,-0.5967,-0.5972,-0.5979,-0.5978,-0.5984,-0.5981,-0.5982,-0.5982,-0.5979,-0.5979,-0.5979,-0.5985,-0.5985,-0.5985]},{"header":{"parameterUnit":"m.s-1","parameterCategory":1,"la1":30.2991,"la2":30.254,"lo1":-89.0895,"lo2":-89.0444,"dy":0.0017,"dx":0.0017,"nx":28,"ny":28,"refTime":"2024-06-04T21:00:00:Z","depth":0,"parameterNumber":3,"parameterNumberName":"V-component_of_WINDS"},"data":[0,0,0,0,0,0,0,0,0,0,0,0,0,0,0,0,0,0,0,0,0,0,0,0,0,0,0,0,0,0,0,0,0,0,0,0,0,0,0,0,0,0,0,0,0,0,0,0,0,0,0,0,0,0,0,0,0,0,4.8596,4.8597,0,4.8702,4.8703,4.8704,4.866,4.8657,4.8655,4.8652,4.8761,4.8766,4.8771,0,0,0,0,0,0,0,0,0,0,0,0,0,4.8354,4.8359,4.8595,4.8597,4.8598,4.8702,4.8703,4.8704,4.866,4.8657,4.8654,4.8651,4.8759,4.8765,4.8771,0,0,0,0,0,0,0,0,0,0,0,0,0,4.846,4.836,4.8595,4.8589,4.8589,4.8701,4.8703,4.8705,4.8661,4.8657,4.8653,4.865,4.8757,4.8765,4.8772,4.8897,0,0,4.8796,4.88,0,0,0,0,0,0,0,0,4.8454,4.8468,4.8588,4.8589,4.859,4.8664,4.8658,4.8769,4.8662,4.8634,4.8652,4.8648,4.8731,4.8741,4.8769,4.8902,4.8907,4.8797,4.8802,4.8805,4.8807,0,0,0,0,0,0,0,4.8446,4.8464,4.8637,4.859,4.8591,4.858,4.8591,4.8679,4.8703,4.8636,4.8633,4.8646,4.8731,4.8762,4.8772,4.8908,4.8797,4.8804,4.8809,4.8812,4.915,4.9154,0,0,0,0,0,0,4.8439,4.8458,4.8634,4.8641,4.8511,4.8588,4.86,4.8644,4.8702,4.8707,4.8649,4.8644,4.875,4.8763,4.8775,4.8926,4.8805,4.8813,4.8817,4.9145,4.9151,4.9155,0,0,0,0,0,0,4.8434,4.8455,4.863,4.8549,4.857,4.8596,4.8646,4.8648,4.8679,4.8712,4.8716,4.8676,4.8748,4.8764,4.8867,4.8929,4.8816,4.8823,4.914,4.9147,4.9153,4.9228,0,0,0,0,0,0,4.8427,4.8454,4.8501,4.855,4.8574,4.8721,4.865,4.8653,4.8692,4.8686,4.8738,4.8743,4.8746,4.8856,4.8875,4.8938,4.8829,4.9135,4.9143,4.9151,4.922,4.9236,4.9249,0,0,0,0,0,4.8419,4.8518,4.8504,4.8526,4.8635,4.8724,4.8738,4.874,4.8698,4.8746,4.8767,4.8741,4.8919,4.8867,4.8888,4.8954,4.9131,4.9141,4.915,4.9213,4.9233,4.9249,0,0,0,0,0,0,4.8476,4.8524,4.8509,4.8627,4.8672,4.8716,4.8777,4.876,4.8818,4.8809,4.8809,4.8821,4.8928,4.8951,4.8892,4.9078,4.9019,4.9033,4.9059,4.9078,4.9093,4.9085,4.8836,0,0,0,0,0,4.8502,4.8571,4.8609,4.8709,4.8733,4.8751,4.879,4.8788,4.8834,4.8853,4.8881,4.8927,4.8993,4.9037,4.9099,4.9223,4.9234,4.9279,4.9293,4.9305,4.9318,4.9386,4.9406,4.9187,4.9186,4.9186,0,0,4.8557,4.8592,4.8635,4.8722,4.8756,4.8827,4.8768,4.8845,4.8898,4.8864,4.8964,4.8987,4.9037,4.9152,4.9203,4.9174,4.9381,4.9318,4.9327,4.9333,4.9398,4.9419,4.9437,4.9193,4.9192,4.9191,0,0,4.8694,4.8727,4.8815,4.885,4.8903,4.8915,4.8936,4.8984,4.8997,4.9097,4.9074,4.9136,4.925,4.9288,4.9321,4.9473,4.9452,4.9493,4.9571,4.9637,4.9654,4.967,4.9725,4.9744,4.9506,4.9506,4.9506,0,4.8756,4.8862,4.8862,4.8942,4.8981,4.8953,4.9042,4.9077,4.9147,4.9175,4.9141,4.9284,4.9316,4.9439,4.9476,4.9505,4.9529,4.9488,4.9652,4.9667,4.9682,4.9734,4.9754,4.9511,4.951,4.9509,4.9509,0,4.8936,4.901,4.9074,4.9143,4.9189,4.9273,4.9286,4.9332,4.9326,4.9341,4.9443,4.9481,4.9551,4.958,4.9574,4.9703,4.9683,4.9651,4.9591,4.9707,4.9757,4.9776,4.9517,4.9516,4.9514,4.9513,0,0,4.9112,4.918,4.9204,4.9235,4.9291,4.9349,4.9431,4.95,4.954,4.959,4.966,4.9757,4.9728,4.9766,4.9764,4.9822,4.9941,4.9783,4.9784,4.9812,5.0085,5.011,5.0133,4.9927,4.9931,4.9934,5.0081,0,4.9253,4.9399,4.9401,4.9534,4.9603,4.9578,4.965,4.9693,4.971,4.977,4.9788,4.9858,4.9813,4.9837,4.9893,4.9914,4.9996,4.9904,4.9992,4.9995,4.9981,5.0158,5.0185,5.0322,5.01,5.0104,5.0106,0,4.9438,4.9494,4.9635,4.9681,4.971,4.9775,4.9839,4.9897,4.9945,4.9953,4.9996,4.9986,5.007,5.0008,5.0125,5.0062,5.0098,5.0114,5.012,5.0128,5.0058,5.0173,5.0366,5.0387,5.0136,5.0134,5.0131,0,4.9553,4.9664,4.9762,4.979,4.9847,4.9893,4.9919,4.9963,5.0004,5.0059,5.0086,5.0151,5.0187,5.0237,5.0244,5.0198,5.0362,5.03,5.0371,5.0372,5.0408,5.0405,5.061,5.043,5.043,5.0429,5.0429,0,4.9712,4.9799,4.9815,4.9876,4.9973,4.9974,5.007,5.0092,5.0131,5.0196,5.0178,5.0239,5.0245,5.0308,5.0314,5.0411,5.0427,5.0436,5.0437,5.0438,5.0437,5.0462,5.0453,5.0435,5.0433,5.0432,5.0431,0,4.9857,4.9871,4.9977,5.0022,5.0036,5.0105,5.0144,5.0202,5.0217,5.0299,5.0319,5.0342,5.0415,5.0427,5.0514,5.0518,5.0633,5.0624,5.0617,5.0617,5.0688,5.0682,5.0917,5.0948,5.0747,5.0748,5.075,0,4.9958,5.0024,5.0077,5.0119,5.0147,5.0215,5.0258,5.0261,5.0306,5.0366,5.0417,5.0489,5.0546,5.0664,5.0689,5.0755,5.0748,5.0826,5.0758,5.0757,5.075,5.0746,5.0753,5.0839,5.0841,5.0843,5.0844,0,5.0135,5.0139,5.02,5.0265,5.0316,5.0367,5.0415,5.045,5.0461,5.0512,5.0587,5.0632,5.072,5.0791,5.0857,5.0883,5.0867,5.0865,5.0886,5.0888,5.0882,5.0888,5.0654,5.086,5.0859,5.0857,5.0857,5.0856,5.0262,5.032,5.0366,5.0436,5.0472,5.0518,5.0575,5.0597,5.0659,5.0732,5.073,5.0812,5.0859,5.0945,5.0976,5.1041,5.1016,5.1045,5.1053,5.106,5.1068,5.0871,5.1053,5.1052,5.1052,5.1052,5.1051,0,5.0439,5.0468,5.0531,5.0599,5.0654,5.0633,5.0685,5.0732,5.0805,5.085,5.0907,5.0993,5.1063,5.1093,5.1161,5.1207,5.1201,5.1225,5.1222,5.1229,5.1085,5.1062,5.1229,5.1229,5.1229,5.1229,5.1229,5.1229,5.0538,5.0636,5.0645,5.076,5.0788,5.0869,5.0901,5.0943,5.0978,5.1076,5.1133,5.1153,5.1192,5.1263,5.1326,5.1333,5.1359,5.1387,5.1391,5.1257,5.1239,5.1222,5.1199,5.1393,5.1393,5.1529,5.153,5.1531]}]]